TimeCDT,TemperatureF,Dew PointF,Humidity,Sea Level PressureIn,VisibilityMPH,Wind Direction,Wind SpeedMPH,Gust SpeedMPH,PrecipitationIn,Events,Conditions,WindDirDegrees,DateUTC
12:15 AM,33.8,23.0,65,29.87,10.0,North,8.1,-,N/A,,Clear,350,2012-10-31 05:15:00
12:35 AM,33.8,23.0,65,29.86,10.0,North,6.9,-,N/A,,Clear,350,2012-10-31 05:35:00
12:55 AM,33.8,23.0,65,29.86,10.0,NNW,5.8,-,N/A,,Clear,340,2012-10-31 05:55:00
1:15 AM,32.0,23.0,69,29.86,10.0,NNW,6.9,-,N/A,,Clear,330,2012-10-31 06:15:00
1:35 AM,32.0,23.0,69,29.85,10.0,NNW,6.9,-,N/A,,Clear,330,2012-10-31 06:35:00
1:55 AM,32.0,24.8,75,29.85,10.0,NNW,4.6,-,N/A,,Clear,340,2012-10-31 06:55:00
2:15 AM,32.0,23.0,69,29.85,10.0,NNW,6.9,-,N/A,,Clear,330,2012-10-31 07:15:00
2:35 AM,32.0,24.8,75,29.86,10.0,NNW,6.9,-,N/A,,Clear,340,2012-10-31 07:35:00
2:55 AM,32.0,24.8,75,29.86,10.0,NNW,6.9,-,N/A,,Clear,330,2012-10-31 07:55:00
3:15 AM,32.0,24.8,75,29.85,10.0,NNW,5.8,-,N/A,,Clear,330,2012-10-31 08:15:00
3:35 AM,32.0,24.8,75,29.86,10.0,NW,6.9,-,N/A,,Clear,320,2012-10-31 08:35:00
3:55 AM,32.0,24.8,75,29.86,10.0,NW,6.9,-,N/A,,Clear,320,2012-10-31 08:55:00
4:15 AM,32.0,24.8,75,29.85,10.0,NNW,8.1,-,N/A,,Clear,330,2012-10-31 09:15:00
4:35 AM,32.0,24.8,75,29.85,10.0,NNW,6.9,-,N/A,,Clear,330,2012-10-31 09:35:00
4:55 AM,32.0,24.8,75,29.85,10.0,NNW,6.9,-,N/A,,Clear,330,2012-10-31 09:55:00
5:15 AM,32.0,24.8,75,29.85,10.0,NNW,6.9,-,N/A,,Clear,330,2012-10-31 10:15:00
5:35 AM,32.0,26.6,80,29.85,10.0,NW,8.1,-,N/A,,Scattered Clouds,320,2012-10-31 10:35:00
5:55 AM,32.0,26.6,80,29.85,10.0,NW,5.8,-,N/A,,Mostly Cloudy,320,2012-10-31 10:55:00
6:15 AM,32.0,26.6,80,29.85,10.0,NNW,6.9,-,N/A,,Scattered Clouds,330,2012-10-31 11:15:00
6:35 AM,32.0,26.6,80,29.85,10.0,NNW,8.1,-,N/A,,Mostly Cloudy,330,2012-10-31 11:35:00
6:55 AM,32.0,26.6,80,29.85,10.0,NNW,8.1,-,N/A,,Mostly Cloudy,330,2012-10-31 11:55:00
7:15 AM,32.0,26.6,80,29.85,10.0,NW,8.1,-,N/A,,Scattered Clouds,310,2012-10-31 12:15:00
7:35 AM,32.0,26.6,80,29.85,10.0,NW,8.1,-,N/A,,Scattered Clouds,320,2012-10-31 12:35:00
7:55 AM,32.0,28.4,87,29.85,10.0,NW,8.1,-,N/A,,Clear,320,2012-10-31 12:55:00
8:15 AM,32.0,28.4,87,29.85,10.0,NW,9.2,-,N/A,,Mostly Cloudy,310,2012-10-31 13:15:00
8:35 AM,32.0,28.4,87,29.85,10.0,NW,9.2,-,N/A,,Overcast,320,2012-10-31 13:35:00
8:55 AM,33.8,28.4,81,29.84,10.0,NW,9.2,-,N/A,,Mostly Cloudy,320,2012-10-31 13:55:00
9:15 AM,35.6,28.4,75,29.84,10.0,NW,10.4,-,N/A,,Scattered Clouds,320,2012-10-31 14:15:00
9:35 AM,35.6,28.4,75,29.84,10.0,NW,13.8,18.4,N/A,,Mostly Cloudy,320,2012-10-31 14:35:00
9:55 AM,37.4,28.4,70,29.84,10.0,NNW,11.5,19.6,N/A,,Overcast,330,2012-10-31 14:55:00
10:15 AM,37.4,28.4,70,29.84,10.0,NNW,12.7,16.1,N/A,,Overcast,330,2012-10-31 15:15:00
10:35 AM,39.2,30.2,70,29.84,10.0,NNW,13.8,18.4,N/A,,Overcast,330,2012-10-31 15:35:00
10:55 AM,39.2,28.4,65,29.84,10.0,NNW,11.5,18.4,N/A,,Overcast,330,2012-10-31 15:55:00
11:15 AM,41.0,30.2,65,29.84,10.0,NNW,12.7,-,N/A,,Overcast,330,2012-10-31 16:15:00
11:35 AM,41.0,30.2,65,29.84,10.0,NW,15.0,19.6,N/A,,Overcast,320,2012-10-31 16:35:00
11:55 AM,41.0,30.2,65,29.84,10.0,NNW,12.7,19.6,N/A,,Overcast,330,2012-10-31 16:55:00
12:15 PM,42.8,30.2,61,29.84,10.0,North,13.8,20.7,N/A,,Overcast,350,2012-10-31 17:15:00
12:35 PM,42.8,30.2,61,29.83,10.0,North,16.1,-,N/A,,Overcast,350,2012-10-31 17:35:00
12:55 PM,44.6,30.2,57,29.83,10.0,North,16.1,24.2,N/A,,Mostly Cloudy,350,2012-10-31 17:55:00
1:15 PM,42.8,30.2,61,29.83,10.0,NNW,16.1,23.0,N/A,,Mostly Cloudy,340,2012-10-31 18:15:00
1:35 PM,44.6,30.2,57,29.82,10.0,NNW,17.3,25.3,N/A,,Mostly Cloudy,340,2012-10-31 18:35:00
1:55 PM,44.6,30.2,57,29.82,10.0,North,16.1,21.9,N/A,,Scattered Clouds,350,2012-10-31 18:55:00
2:15 PM,44.6,30.2,57,29.82,10.0,NNW,13.8,20.7,N/A,,Clear,330,2012-10-31 19:15:00
2:35 PM,44.6,30.2,57,29.81,10.0,NNW,13.8,25.3,N/A,,Clear,330,2012-10-31 19:35:00
2:55 PM,44.6,30.2,57,29.81,10.0,NW,10.4,16.1,N/A,,Clear,320,2012-10-31 19:55:00
3:15 PM,44.6,30.2,57,29.81,10.0,NW,11.5,18.4,N/A,,Clear,310,2012-10-31 20:15:00
3:35 PM,44.6,30.2,57,29.81,10.0,NNW,12.7,18.4,N/A,,Clear,340,2012-10-31 20:35:00
3:55 PM,44.6,30.2,57,29.81,10.0,NW,13.8,17.3,N/A,,Clear,320,2012-10-31 20:55:00
4:15 PM,44.6,28.4,53,29.81,10.0,NNW,12.7,18.4,N/A,,Clear,330,2012-10-31 21:15:00
4:35 PM,44.6,28.4,53,29.81,10.0,NNW,11.5,16.1,N/A,,Clear,330,2012-10-31 21:35:00
4:55 PM,44.6,26.6,49,29.81,10.0,NNW,11.5,17.3,N/A,,Clear,340,2012-10-31 21:55:00
5:15 PM,44.6,26.6,49,29.82,10.0,NNW,8.1,16.1,N/A,,Clear,340,2012-10-31 22:15:00
5:35 PM,44.6,26.6,49,29.82,10.0,NNW,8.1,-,N/A,,Clear,330,2012-10-31 22:35:00
5:55 PM,42.8,26.6,53,29.83,10.0,NNW,3.5,-,N/A,,Clear,340,2012-10-31 22:55:00
6:15 PM,41.0,26.6,57,29.83,10.0,NNW,4.6,-,N/A,,Clear,330,2012-10-31 23:15:00
6:35 PM,41.0,26.6,57,29.83,10.0,Calm,Calm,-,N/A,,Clear,0,2012-10-31 23:35:00
7:15 PM,33.8,23.0,65,29.83,10.0,WNW,4.6,-,N/A,,Clear,290,2012-11-01 00:15:00
7:35 PM,35.6,23.0,60,29.83,10.0,NW,5.8,-,N/A,,Clear,310,2012-11-01 00:35:00
7:55 PM,37.4,19.4,48,29.83,10.0,NW,5.8,-,N/A,,Clear,320,2012-11-01 00:55:00
8:15 PM,37.4,17.6,45,29.83,10.0,NW,6.9,-,N/A,,Clear,320,2012-11-01 01:15:00
8:35 PM,37.4,17.6,45,29.84,10.0,NW,6.9,-,N/A,,Clear,320,2012-11-01 01:35:00
8:55 PM,37.4,17.6,45,29.84,10.0,NW,5.8,-,N/A,,Clear,310,2012-11-01 01:55:00
9:15 PM,35.6,17.6,48,29.84,10.0,NW,6.9,-,N/A,,Clear,310,2012-11-01 02:15:00
9:35 PM,35.6,17.6,48,29.84,10.0,NW,8.1,-,N/A,,Clear,320,2012-11-01 02:35:00
9:55 PM,35.6,17.6,48,29.84,10.0,NW,8.1,-,N/A,,Clear,320,2012-11-01 02:55:00
10:15 PM,35.6,14.0,41,29.84,10.0,NNW,8.1,-,N/A,,Clear,330,2012-11-01 03:15:00
10:35 PM,35.6,14.0,41,29.84,10.0,NNW,6.9,-,N/A,,Clear,330,2012-11-01 03:35:00
10:55 PM,35.6,14.0,41,29.84,10.0,NNW,4.6,-,N/A,,Clear,330,2012-11-01 03:55:00
11:15 PM,32.0,14.0,48,29.84,10.0,NW,3.5,-,N/A,,Clear,320,2012-11-01 04:15:00
11:35 PM,32.0,14.0,48,29.84,10.0,NW,3.5,-,N/A,,Clear,310,2012-11-01 04:35:00
11:55 PM,32.0,15.8,51,29.84,10.0,Calm,Calm,-,N/A,,Clear,0,2012-11-01 04:55:00